User: anonymous
Location: Niverville
(49.6028°N, 97.0419°W)
Time: 01:54:19
(UTC-05:00)
Language:

BREEZE-M DEB (TANK) - Orbit

View from above orbital plane
View from above orbital plane
View from above satellite
View from above satellite

Ground track
Ground track

The orbit data is extracted from the following two-line orbital elements,

1 33374U 08044B   14245.10297550  .00001384  00000-0  50449-3 0  7170
2 33374 049.4663 277.3608 5449900 194.4228 291.5769 04.84369778104468
Epoch (UTC): 02 September 2014 02:28:17
Eccentricity: 0.5449900
inclination: 49.4663°
perigee height: 336 km
apogee height: 16418 km
right ascension of ascending node: 277.3608°
argument of perigee: 194.4228°
revolutions per day: 4.84369778
mean anomaly at epoch: 291.5769°
orbit number at epoch: 10446

The dashed part of the orbit path shows where the satellite is in the earth's shadow,  

DLR